Home   Weather   Târgu Mureş   Past weeks

Flag for Romania Past Weather in Târgu Mureş, Romania — Yesterday and Last 2 Weeks

46 °F


Feels Like: 46 °F
Forecast: 38 / 58 °F
Wind: No wind

Location: Tirgu Mures Airport

Current Time: Oct 23, 2016 at 6:13:25 AM

Latest Report: Oct 23, 2016 at 5:30 AM

Visibility: 2 mi

Pressure: 30.12 "Hg

Humidity: 100%

Dew Point: 46 °F

Location of Târgu MureşLocation

Past Weather in Târgu Mureş — Graph


Târgu Mureş Temperature Yesterday

Maximum temperature yesterday: 54 °F (at 2:30 PM)
Minimum temperature yesterday: 43 °F (at 11:00 PM)
Average temperature yesterday: 50 °F

High & Low Weather Summary for the Past Weeks

High64 °F (Oct 21, 3:00 PM)100% (Oct 10, 12:00 AM)30.51 "Hg (Oct 10, 12:00 AM)
Low27 °F (Oct 10, 6:30 AM)39% (Oct 10, 3:00 PM)29.68 "Hg (Oct 12, 3:00 PM)
Average47 °F81%30.11 "Hg
* Reported Oct 8 5:00 AM — Oct 23 5:00 AM, Târgu Mureş, Weather by CustomWeather, © 2016

Note: Actual official high and low records may vary slightly from our data, if they occured in-between our weather recording intervals... More about our weather records


Târgu Mureş Weather History for the Previous 24 Hours

Scroll right to see more
Time TempWeatherWind HumidityBarometerVisibility
5:00 AM
Sun, Oct 23
46 °FFog.No wind100%30.12 "Hg2 mi
4:00 AM46 °FFog.No wind100%30.12 "Hg1 mi
3:00 AM45 °FFog.5 mph100%N/A1 mi
2:00 AM45 °FFog.No wind100%30.12 "Hg1 mi
1:00 AM45 °FFog.No wind100%30.12 "HgN/A
12:00 AM43 °FFog.No wind100%30.12 "Hg1 mi
11:00 PM
Sat, Oct 22
43 °FSleet. Overcast.No wind100%30.12 "Hg2 mi
10:00 PM45 °FSleet. Overcast.3 mph93%30.12 "Hg2 mi
9:00 PM48 °FFog.2 mph100%30.09 "Hg3 mi
8:30 PM50 °FFog.3 mph100%30.09 "Hg3 mi
8:00 PM50 °FPartly cloudy.3 mph94%30.09 "Hg4 mi
7:30 PM50 °FPartly cloudy.No wind94%30.07 "HgN/A
7:00 PM50 °FPassing clouds.2 mph100%30.07 "HgN/A
6:30 PM54 °FPassing clouds.No wind88%30.07 "HgN/A
6:00 PM54 °FScattered clouds.No wind88%30.04 "HgN/A
5:30 PM54 °FScattered clouds.No wind88%30.04 "HgN/A
5:00 PM54 °FScattered clouds.No wind88%30.04 "HgN/A
4:30 PM54 °FLight rain. Partly sunny.3 mph88%30.04 "HgN/A
4:00 PM54 °FScattered clouds.3 mph88%30.04 "HgN/A
3:30 PM54 °FScattered clouds.3 mph88%30.04 "HgN/A
3:00 PM54 °FPartly sunny.5 mph88%30.01 "HgN/A
2:30 PM54 °FBroken clouds.6 mph88%30.01 "HgN/A
2:00 PM52 °FLight rain. Broken clouds.5 mph94%30.01 "HgN/A
1:30 PM52 °FLight rain. Broken clouds.1 mph94%30.04 "Hg5 mi
1:00 PM52 °FLight rain. More clouds than sun.No wind94%30.01 "HgN/A
12:30 PM52 °FLight rain. Partly sunny.2 mph94%30.01 "HgN/A
12:00 PM52 °FLight rain. Partly sunny.No wind94%30.01 "Hg5 mi
11:30 AM52 °FLight rain. Partly sunny.5 mph88%30.01 "HgN/A
11:00 AM50 °FRain. Passing clouds.5 mph94%29.98 "Hg5 mi
10:30 AM50 °FLight rain. Clear.5 mph94%29.98 "Hg5 mi
10:00 AM50 °FLight rain. Clear.2 mph94%29.98 "Hg5 mi
9:30 AM50 °FLight rain. Clear.6 mph88%29.98 "Hg6 mi
9:00 AM48 °FLight rain. Clear.6 mph94%29.98 "Hg6 mi
8:30 AM48 °FLight rain. Clear.2 mph87%29.98 "HgN/A
8:00 AM46 °FLight rain. Clear.No wind93%29.95 "HgN/A
7:30 AM46 °FClear.1 mph93%29.95 "Hg10 mi
7:00 AM48 °FClear.No wind87%29.95 "Hg10 mi
6:30 AM48 °FClear.No wind87%29.95 "Hg10 mi
6:00 AM46 °FClear.1 mph87%29.95 "Hg10 mi
Weather by CustomWeather, © 2016

See weather overviewHow to use our weather pages